Regional Weather Roundup
Issued by NWS

Home | Current Version | Previous Version | Text Only | Print | Product List | Glossary On
Versions: 1 2 3 4 5 6 7 8 9 10 11 12 13 14 15 16 17 18 19 20 21 22 23 24 25 26 27 28 29 30 31 32 33 34 35 36 37 38 39 40 41 42 43 44 45 46 47 48 49 50
000
ASCA42 TJSJ 292110
RWRPR
PUERTO RICO/U.S. VIRGIN ISLANDS HOURLY WEATHER ROUNDUP
NATIONAL WEATHER SERVICE SAN JUAN PR
500 PM AST FRI MAY 29 2015

PRZ001-004-292200-
PUERTO RICO

CITY           SKY/WX    TMP DP  RH WIND       PRES   REMARKS
SAN JUAN LMM   LGT RAIN  81  77  89 NE5       29.96S
AGUADILLA      PTSUNNY   82  73  74 E8        29.97S
CEIBA          HVY RAIN  77  73  88 S10       29.99R FOG
$$

PRZ006-007-292200-
U.S. VIRGIN ISLANDS

CITY           SKY/WX    TMP DP  RH WIND       PRES   REMARKS
CHARLOTTE AMA  CLOUDY    82  75  78 SE8       29.95S
CHRISTIANSTED  MOSUNNY   81  75  83 E7        29.96R
$$

HOURLY WEATHER ROUNDUP FOR THE NEWS MEDIA

CITY           SKY/WX    TMP DP  RH WIND       PRES   REMARKS
ORLANDO        MOSUNNY   84  68  58 E21       30.07F
NEW YORK       PTSUNNY   74  55  51 SE10      30.25F
NEWARK         PTSUNNY   78  56  46 SE8       30.22F
CHICAGO        PTSUNNY   78  64  61 S22G28    29.91F
HARTFORD       SUNNY     76  59  55 SE10      30.25S
BOSTON         MOSUNNY   60  58  92 E9        30.27F
DALLAS         CLOUDY    78  66  66 W10       29.93F
PHILADELPHIA   MOSUNNY   86  62  44 MISG      30.20
LOS ANGELES    PTSUNNY   67  58  72 W13       29.95F
WASHINGTON DC  MOSUNNY   83  69  62 E9        30.18F


USA.gov is the U.S. government's official web portal to all federal, state and local government web resources and services.